Regional Weather Roundup
Issued by NWS

Home | Current Version | Previous Version | Graphics & Text | Print | Product List | Glossary On
Versions: 1 2 3 4 5 6 7 8 9 10 11 12 13 14 15 16 17 18 19 20 21 22 23 24 25 26 27 28 29 30 31 32 33 34 35 36 37 38 39 40 41 42 43 44 45 46 47 48 49 50
000
ASUS45 KCYS 282010
RWRWY

WYOMING REGIONAL WEATHER ROUNDUP
NATIONAL WEATHER SERVICE CHEYENNE WY
200 PM MDT SAT MAR 28 2015

NOTE:  "FAIR" INDICATES FEW OR NO CLOUDS BELOW 12,000 FEET
WITH NO SIGNIFICANT WEATHER AND/OR OBSTRUCTIONS TO VISIBILITY.

WYZ001-282100-
YELLOWSTONE NATIONAL PARK

CITY           SKY/WX    TMP DP  RH WIND       PRES   REMARKS
LK YELLOWSTONE   N/A     45  24  43 W10G31    30.05S
W YELLOWSTONE  NOT AVBL

$$
WYZ002>013-054>058-071-098>099-282100-
NORTHERN WYOMING

CITY           SKY/WX    TMP DP  RH WIND       PRES   REMARKS
JACKSON        MOSUNNY   52  27  37 SW22G38   30.06R
CODY           FAIR      70  23  17 W25G46    29.79R
GREYBULL       FAIR      78  22  12 W26G40    29.73F
WORLAND        FAIR      79  22  12 SW37G43   29.74F
SHERIDAN       FAIR      78  25  14 SW14      29.69F
BUFFALO        FAIR      75  21  13 W20G37    29.75F
GILLETTE       FAIR      76  23  14 SW24G35   29.72F
HULETT         FAIR      73  32  21 SW13G20   29.74F
NEWCASTLE      FAIR      73  28  19 MISG      29.78F

$$
WYZ014>020-022>026-101>103-282100-
CENTRAL WYOMING

CITY           SKY/WX    TMP DP  RH WIND       PRES   REMARKS
BIG PINEY      FAIR      63  20  19 W39G51    30.08F
PINEDALE       FAIR      61  23  23 W31G39    30.07S
DUBOIS         FAIR      55  21  26 W31G51    29.99S
LANDER         FAIR      73  22  14 SW31G48   29.87F
RIVERTON       FAIR      73  21  14 W29G43    29.89S
CASPER         FAIR      72  25  17 W32G45    29.88F
DOUGLAS        FAIR      77  24  14 W28G40    29.85F

$$
WYZ021-027>030-104>119-282100-
SOUTHERN WYOMING

CITY           SKY/WX    TMP DP  RH WIND       PRES   REMARKS
EVANSTON       FAIR      64  22  20 W26G39    30.18S
KEMMERER       FAIR      61  23  23 W36G43    30.13F
FORT BRIDGER   FAIR      67  25  20 W31G38    30.18S
ROCK SPRINGS   FAIR      68  21  16 W30G40    30.09F
DIXON          FAIR      69  22  17 SW13G26   30.12F
RAWLINS        PTSUNNY   67  24  19 SW22G40   30.04F
SARATOGA       FAIR      66  21  18 SW22G38   30.10F
LARAMIE        FAIR      66  19  16 W25G36    30.07F
CHEYENNE       FAIR      72  20  14 W15G22    29.99F
TORRINGTON     FAIR      77  23  13 W10G23    29.85F
PINE BLUFFS    FAIR      77  21  12 W18G25    29.96F

$$


USA.gov is the U.S. government's official web portal to all federal, state and local government web resources and services.